Tracking 19709 objects as of 20-Jun-2019
HD Live streaming from Space Station
objects crossing your sky now

RANGE A

Track RANGE A now!
10-day predictions


NORAD ID: 43798
Int'l Code: 2018-099AS
Perigee: 579.3 km
Apogee: 595.2 km
Inclination: 97.7 °
Period: 96.3 minutes
Semi major axis: 6958 km
RCS: Unknown
Launch date: December 3, 2018
Source: (TBD)
Launch site: AIR FORCE WESTERN TEST RANGE (AFWTR)
aabbcc
Your satellite tracking list
Your tracking list is empty




NASA's NSSDC Master Catalog

Two Line Element Set (TLE):
1 43798U 18099AS  19170.17383545 -.00000328  00000-0 -24240-4 0  9993
2 43798  97.7446 242.3182 0011429 317.5517  42.4820 14.95732412 29490
Source of the keplerian elements: AFSPC